sat.trackr.live / text

‹ back to catalog

COSMOS 2580

NORAD 62216 · 2024-230A

PAYLOAD ACTIVE UNKNOWN

§ Identity

Operator
Country
CIS
Launch date
2024-12-04
Launch site
PLMSC
Launch vehicle
Mass (kg)
RCS (m²)

External: N2YO · Heavens-Above · Gunter

§ Orbital elements

Epoch: 2026-05-25T04:14:56.136768Z

Period
103.10 min
Inclination
67.1468°
Eccentricity
0.0006539
Mean motion
13.96671443 rev/d
Perigee alt
900.6 km
Apogee alt
910.1 km
Semi-major
7,283.5 km
B*
3.7222e-5
RAAN
106.7733°
Arg perigee
264.5653°
Mean anomaly
95.4686°
Rev number
7,492

§ Raw data

COSMOS 25801 62216U 24230A   26145.17703862 -.00000024  00000+0  37222-4 0  99962 62216  67.1468 106.7733 0006539 264.5653  95.4686 13.96671443 74926

JSON: /api/v1/satellites/62216 · /tle

For live sub-satellite position, see the globe view (requires WebGL).

§ Visibility from observer

Set your observer location to see the next 7 days of passes ≥ 10°. The values pass through the URL so the page stays shareable.

No JS? Fill the form by hand. The geolocation button needs JavaScript.